"Pseudo-MPEC" for P10UM24

Created 2019 Dec 7 11:07:21 UT using Find_Orb

Click here for an explanation of pseudo-MPECs

 
 Astrometry: 
     P10UM24  C2019 11 261tnyHM]s[hqh:whmyuY*:p`k1YT`G:qA.KC5.pvg8kZ^=Vphb;u;F51
     P10UM24  C2019 11 26T[n-7VX[Ffw=eUb]iF!EWoas1anoOC6Ztn;@5mAstrometry7,2FF51
     P10UM24  C2019 11 26no5nJ5g[*NToiHv^RsBSredacted;QclickkIKZpbf\b4Qx\V3I7F51
     P10UM24  C2019 11 26qQFg@H=YT6here[wCfhF8HThR=V^o8:(for+SGQtexplanationhF51

Station data:
(F51) Pan-STARRS 1, Haleakala  (N20.707235 W156.255910)  US/Hawaii.
   Observers N. Primak, A. Schultz, S. Watters, J. Thiel, T. Goggia. Measurer
   PS1 Science Consortium. 1.8-m Ritchey-Chrétien + CCD.

Orbital elements:  P10UM24
   Perihelion 2019 Nov 14.014256 +/- 35.6 TT =  0:20:31 (JD 2458801.514256)
Epoch 2019 Nov 26.0 TT = JDT 2458813.5   Earth MOID: 0.0561   Ma: 0.0337
M   7.42604377 +/- 16               (J2000 ecliptic)          AutoNEOCP
n   0.61957301 +/- 0.345            Peri.  198.76711 +/- 90
a   1.36272341 +/- 0.506            Node   211.78465 +/- 60
e   0.2327616 +/- 0.246             Incl.    2.03055 +/- 3.7
P   1.59/581.03d           H 26.9   G  0.15   U 12.0  SR
q 1.04553370 +/- 0.195    Q 1.67991312 +/- 47.6
From 4 observations 2019 Nov. 26 (50.9 min); mean residual 0".04
Residuals in arcseconds: 
191126 F51  .05-  .02+    191126 F51  .02+  .02-    
191126 F51  .07+  .02-    191126 F51  .04-  .02+    

Ephemerides (geocentric):
Date (UTC) HH   RA              Dec         delta   r     elong  mag " sig PA
---- -- -- --  -------------   -----------  ------ ------ -----  --- ---- ---
2019 12 07 11  04 36 38.534   +03 43 40.78  .08157 1.0625 160.7 22.5  48d   2
2019 12 07 12  04 36 46.179   +03 43 58.72  .08164 1.0626 160.7 22.5  49d   2
2019 12 07 13  04 36 53.813   +03 44 16.70  .08171 1.0626 160.7 22.5  49d   2
2019 12 07 14  04 37 01.435   +03 44 34.75  .08178 1.0627 160.7 22.5  49d   2
2019 12 07 15  04 37 09.046   +03 44 52.84  .08184 1.0627 160.7 22.5  49d   2
2019 12 07 16  04 37 16.646   +03 45 10.99  .08191 1.0628 160.7 22.5  49d   2
2019 12 07 17  04 37 24.235   +03 45 29.18  .08198 1.0629 160.7 22.5  49d   2
2019 12 07 18  04 37 31.812   +03 45 47.43  .08205 1.0629 160.7 22.5  49d   2
2019 12 07 19  04 37 39.378   +03 46 05.74  .08212 1.0630 160.7 22.5  49d   2
2019 12 07 20  04 37 46.933   +03 46 24.09  .08220 1.0630 160.7 22.5  49d   2
2019 12 07 21  04 37 54.476   +03 46 42.50  .08227 1.0631 160.7 22.5  49d   2
2019 12 07 22  04 38 02.008   +03 47 00.96  .08234 1.0632 160.7 22.5  49d   2
2019 12 07 23  04 38 09.530   +03 47 19.47  .08241 1.0632 160.7 22.5  49d   2
2019 12 08 00  04 38 17.040   +03 47 38.03  .08248 1.0633 160.7 22.5  49d   2
2019 12 08 01  04 38 24.538   +03 47 56.64  .08255 1.0633 160.7 22.5  49d   2
2019 12 08 02  04 38 32.026   +03 48 15.31  .08262 1.0634 160.7 22.5  49d   2
2019 12 08 03  04 38 39.503   +03 48 34.02  .08269 1.0635 160.7 22.5  49d   2
2019 12 08 04  04 38 46.968   +03 48 52.79  .08276 1.0635 160.7 22.5  49d   2
2019 12 08 05  04 38 54.423   +03 49 11.60  .08283 1.0636 160.7 22.5  50d   2
2019 12 08 06  04 39 01.866   +03 49 30.47  .08290 1.0636 160.7 22.5  50d   2
2019 12 08 07  04 39 09.298   +03 49 49.39  .08297 1.0637 160.7 22.6  50d   2
2019 12 08 08  04 39 16.719   +03 50 08.36  .08305 1.0638 160.7 22.6  50d   2
2019 12 08 09  04 39 24.129   +03 50 27.38  .08312 1.0638 160.6 22.6  50d   2
2019 12 08 10  04 39 31.529   +03 50 46.45  .08319 1.0639 160.6 22.6  50d   2
2019 12 08 11  04 39 38.917   +03 51 05.57  .08326 1.0639 160.6 22.6  50d   2
2019 12 08 12  04 39 46.294   +03 51 24.74  .08333 1.0640 160.6 22.6  50d   2
2019 12 08 13  04 39 53.660   +03 51 43.96  .08340 1.0641 160.6 22.6  50d   2
2019 12 08 14  04 40 01.015   +03 52 03.23  .08348 1.0641 160.6 22.6  50d   2
2019 12 08 15  04 40 08.359   +03 52 22.55  .08355 1.0642 160.6 22.6  50d   2
2019 12 08 16  04 40 15.693   +03 52 41.91  .08362 1.0643 160.6 22.6  50d   2
2019 12 08 17  04 40 23.015   +03 53 01.33  .08369 1.0643 160.6 22.6  50d   2
2019 12 08 18  04 40 30.327   +03 53 20.80  .08376 1.0644 160.6 22.6  50d   2
2019 12 08 19  04 40 37.627   +03 53 40.31  .08384 1.0644 160.6 22.6  50d   2
2019 12 08 20  04 40 44.917   +03 53 59.88  .08391 1.0645 160.6 22.6  50d   2
2019 12 08 21  04 40 52.196   +03 54 19.49  .08398 1.0646 160.6 22.6  51d   2
2019 12 08 22  04 40 59.464   +03 54 39.15  .08405 1.0646 160.6 22.6  51d   2
2019 12 08 23  04 41 06.722   +03 54 58.87  .08413 1.0647 160.6 22.6  51d   2
2019 12 09 00  04 41 13.968   +03 55 18.63  .08420 1.0648 160.6 22.6  51d   2
2019 12 09 01  04 41 21.204   +03 55 38.43  .08427 1.0648 160.6 22.6  51d   2
2019 12 09 02  04 41 28.429   +03 55 58.29  .08434 1.0649 160.6 22.6  51d   2
2019 12 09 03  04 41 35.643   +03 56 18.19  .08442 1.0649 160.6 22.6  51d   2
2019 12 09 04  04 41 42.846   +03 56 38.15  .08449 1.0650 160.6 22.6  51d   2
2019 12 09 05  04 41 50.039   +03 56 58.15  .08456 1.0651 160.6 22.6  51d   2
2019 12 09 06  04 41 57.221   +03 57 18.19  .08464 1.0651 160.6 22.6  51d   2
2019 12 09 07  04 42 04.392   +03 57 38.29  .08471 1.0652 160.6 22.6  51d   2
2019 12 09 08  04 42 11.553   +03 57 58.43  .08478 1.0653 160.6 22.6  51d   2
2019 12 09 09  04 42 18.703   +03 58 18.62  .08486 1.0653 160.6 22.6  51d   2
2019 12 09 10  04 42 25.842   +03 58 38.86  .08493 1.0654 160.6 22.6  51d   2